Погода в Уеге

Россия / Республика Коми     65˚44′10″N   52˚03′45″E
темп.,
°C
ветер,
м/с
пор.,
м/с
влажн.,
%
обл.,
%
осадки,
мм/ч
давл.,
гПа
погр.,
м
17 января, вс
вс1700:00−27˚с22940 0.0 101219
03:00−26˚с12920 0.0 101119
06:00−26˚ссз119328 0.0 100919
09:00−23˚зсз119364 0.0 100821
12:00−20˚з1294100 0.0 1007104
15:00−20˚сз1199100 0.5 100720
18:00−21˚с119998 0.3 100620
21:00−23˚ссв229990 0.3 100821
18 января, пн
пн1800:00−25˚ссв249996 0.0 1009105
03:00−28˚ссв259891 0.1 1011118
06:00−30˚ссв23980 0.0 101248
09:00−30˚с12980 0.0 101519
12:00−29˚зсз11970 0.0 101619
15:00−29˚з11980 0.0 101819
18:00−29˚з11980 0.0 101819
21:00−29˚зюз12980 0.0 101819
19 января, вт
вт1900:00−29˚зюз12980 0.0 101919
03:00−29˚ююз12960 0.0 102019
06:00−28˚ю229347 0.0 101819
09:00−26˚ююв269264 0.0 1018130
12:00−23˚ююв368997 0.0 1017208
15:00−22˚ююв379398 0.0 1016243
18:00−22˚ююв3897100 0.1 1014297
21:00−21˚ююв3798100 0.6 1014325
20 января, ср
ср2000:00−21˚ююв2698100 0.3 1013311
03:00−21˚ююв2598100 0.6 1012312
06:00−21˚юв2598100 0.5 1012271
09:00−21˚в2499100 1.0 1011220
12:00−21˚всв2498100 0.3 1012239
15:00−22˚св3698100 0.5 1012259
18:00−25˚св369799 0.1 1014254
21:00−26˚ссв379898 0.1 1015209
21 января, чт
чт2100:00−29˚ссв379899 0.0 1017227
03:00−31˚ссв3898100 0.1 1018211
06:00−31˚ссв4897100 0.1 1018242
09:00−34˚ссв4896100 0.1 1019224
12:00−34˚ссв389570 0.0 1021246
15:00−36˚ссв389661 0.0 1021196
18:00−37˚ссв389516 0.0 1022181
21:00−38˚ссв26938 0.0 1023140